EW2082 Weather Reports


Display with metric or nautical units.
time (UTC)temp
F
wind
direction
speed
MPH
gust
MPH
rain 1hr
in
rain 24hr
in
rain mn
in
humidity
%
barometer
mb
20260502224004 71 29 0.0 3.0 0.00 0.00 0.00 65 1010.0
20260502223004 72 330 0.0 3.0 0.00 0.00 0.00 64 1010.3
20260502222004 71 23 0.0 6.0 0.00 0.00 0.00 65 1010.6
20260502221004 72 354 1.0 5.0 0.00 0.00 0.00 65 1010.8
20260502220006 72 311 0.0 3.0 0.00 0.00 0.00 63 1010.9
20260502215004 73 24 3.0 6.0 0.00 0.00 0.00 62 1011.1
20260502214004 73 335 0.0 5.0 0.00 0.00 0.00 65 1011.2
20260502213004 73 297 0.0 5.0 0.00 0.00 0.00 64 1011.4
20260502212005 73 286 0.0 3.0 0.00 0.00 0.00 64 1011.5
20260502211004 74 30 0.0 3.0 0.00 0.00 0.00 63 1011.6
20260502210005 74 248 0.0 4.0 0.00 0.00 0.00 63 1011.6
20260502205004 74 344 0.0 4.0 0.00 0.00 0.00 64 1011.8
20260502203004 74 354 0.0 3.0 0.00 0.00 0.00 65 1011.8
20260502202004 75 278 0.0 2.0 0.00 0.00 0.00 65 1011.9
20260502201005 75 44 0.0 1.0 0.00 0.00 0.00 64 1011.9
20260502200005 75 234 0.0 0.0 0.00 0.00 0.00 65 1011.8
20260502195005 74 129 0.0 0.0 0.00 0.00 0.00 67 1012.0
20260502194004 73 203 0.0 0.0 0.00 0.00 0.00 68 1012.2
20260502193004 72 2 0.0 0.0 0.00 0.00 0.00 69 1012.2
20260502192005 71 57 0.0 0.0 0.00 0.00 0.00 69 1012.3
20260502190008 71 188 0.0 0.0 0.00 0.00 0.00 69 1012.8
20260502185004 70 188 0.0 0.0 0.00 0.00 0.00 74 1012.9
20260502184005 69 188 0.0 0.0 0.00 0.00 0.00 74 1013.0
20260502183004 69 158 0.0 0.0 0.00 0.00 0.00 74 1012.9
20260502182004 68 158 0.0 0.0 0.00 0.00 0.00 76 1013.2
20260502181004 68 181 0.0 0.0 0.00 0.00 0.00 76 1013.2
20260502163005 62 158 0.0 0.0 0.00 0.00 0.00 86 1013.6
20260502162004 62 158 0.0 0.0 0.00 0.00 0.00 86 1013.8
20260502151004 61 196 0.0 0.0 0.00 0.00 0.00 88 1013.6
20260502123005 60 142 0.0 0.0 0.00 0.00 0.00 90 1012.7
20260502122004 60 142 0.0 0.0 0.00 0.00 0.00 90 1012.4
20260502121005 60 234 0.0 1.0 0.00 0.00 0.00 90 1012.4
20260502115004 60 191 0.0 3.0 0.00 0.00 0.00 90 1012.1
20260502114004 60 168 0.0 1.0 0.00 0.00 0.00 90 1012.1
20260502113004 60 187 0.0 1.0 0.00 0.00 0.00 90 1011.9
20260502111004 60 182 0.0 0.0 0.00 0.00 0.00 90 1012.0
20260502110005 60 193 0.0 2.0 0.00 0.00 0.00 90 1012.1
20260502105005 60 162 0.0 1.0 0.00 0.00 0.00 91 1012.1
20260502104005 60 162 0.0 0.0 0.00 0.00 0.00 91 1011.8
20260502101004 60 203 0.0 0.0 0.00 0.00 0.00 91 1011.8
20260502091004 59 290 0.0 0.0 0.00 0.00 0.00 92 1012.2
20260502071004 58 303 0.0 1.0 0.00 0.00 0.00 91 1012.8
20260502070008 58 303 0.0 0.0 0.00 0.00 0.00 91 1012.7
20260502065004 58 303 0.0 0.0 0.00 0.00 0.00 90 1012.7
20260502064004 59 303 0.0 0.0 0.00 0.00 0.00 90 1012.6
20260502063004 59 303 0.0 1.0 0.00 0.00 0.00 90 1012.8
20260502062005 59 303 0.0 1.0 0.00 0.00 0.00 90 1012.8
20260502061005 59 303 0.0 1.0 0.00 0.00 0.00 90 1012.5
20260502055005 59 293 0.0 2.0 0.00 0.00 0.00 89 1012.4
20260502054005 60 267 0.0 1.0 0.00 0.00 0.00 89 1012.4
20260502052005 60 60 0.0 1.0 0.00 0.00 0.00 88 1012.7
20260502051004 60 64 0.0 1.0 0.00 0.00 0.00 88 1012.4
20260502050004 60 258 0.0 1.0 0.00 0.00 0.00 88 1012.5
20260502044004 61 150 0.0 2.0 0.00 0.00 0.00 87 1012.3
20260502042004 61 224 0.0 1.0 0.00 0.00 0.00 86 1012.2
20260502041004 62 257 0.0 2.0 0.00 0.00 0.00 86 1012.1
20260502040005 62 15 0.0 2.0 0.00 0.00 0.00 85 1011.9
20260502035004 62 297 0.0 2.0 0.00 0.00 0.00 85 1011.9
20260502034005 62 199 0.0 2.0 0.00 0.00 0.00 85 1011.8
20260502033005 62 274 0.0 2.0 0.00 0.00 0.00 85 1011.7
20260502032004 62 214 0.0 2.0 0.00 0.00 0.00 85 1011.5
20260502030005 62 62 0.0 2.0 0.00 0.00 0.00 85 1011.3
20260502025004 62 40 0.0 3.0 0.00 0.00 0.00 84 1011.4
20260502023005 63 25 0.0 2.0 0.00 0.00 0.00 83 1011.2
20260502022008 64 16 0.0 5.0 0.00 0.00 0.00 82 1011.2
20260502021004 64 84 1.0 3.0 0.00 0.00 0.00 81 1011.1
20260502020005 65 32 0.0 4.0 0.00 0.00 0.00 79 1010.9
20260502015005 67 119 0.0 4.0 0.00 0.00 0.00 76 1010.6
20260502014004 67 221 3.0 3.0 0.00 0.00 0.00 74 1010.7
20260502013005 68 48 0.0 7.0 0.00 0.00 0.00 74 1010.7
20260502012005 68 302 0.0 3.0 0.00 0.00 0.00 74 1010.5
20260502011005 68 174 0.0 4.0 0.00 0.00 0.00 72 1010.4
20260502010004 69 269 0.0 4.0 0.00 0.00 0.00 72 1010.5